Wind_Speed
8 8 7 8 10 11 12 12 12 12 13 13 13 13 12 12 13 14 14 13 13 12 11 10 11 13 14 16 18 20 23 25 26 27 27 27 27 27 27 28 29 30 31 32 32 32 32 32 32 32 31 30 30 32 33 34 34 33 33 31 30 30 29 25 17 15 22 25 24 24 22 20 20 20 18 17 17 16 15 16 16 16 17 16 17
8 7 7 8 10 11 12 11 11 12 14 15 14 12 12 12 13 14 14 14 14 13 13 13 14 15 17 18 19 21 23 25 26 26 27 27 27 27 27 27 29 31 32 33 33 33 33 34 32 32 33 31 30 30 29 30 32 33 33 31 31 32 30 28 23 18 19 23 25 25 24 24 25 25 24 23 22 20 19 19 19 19 18 18 19
8 6 7 8 9 10 11 10 10 12 13 14 14 12 11 12 12 13 14 14 14 14 14 15 16 16 17 19 20 21 22 24 25 27 27 27 28 28 28 28 29 31 32 33 34 34 34 35 34 34 34 31 30 29 28 29 30 31 32 32 32 32 32 31 28 22 20 23 25 25 25 26 28 28 27 24 22 20 21 20 20 20 20 21 22
8 7 7 9 9 10 10 10 10 11 12 13 13 13 12 12 12 13 13 14 14 14 14 14 15 16 18 19 20 20 22 24 26 27 26 26 27 27 27 28 29 30 32 33 34 34 34 35 36 37 35 33 32 32 31 31 32 32 32 32 32 33 33 33 32 28 23 23 25 27 25 25 27 28 25 22 20 20 20 21 21 22 22 22 23
8 8 9 10 10 10 10 10 10 11 12 13 13 13 14 13 12 12 13 14 14 13 14 14 15 17 19 19 19 20 22 23 24 24 23 23 24 24 25 26 27 28 30 31 32 32 33 34 36 37 36 34 34 33 34 33 33 33 32 32 32 32 32 33 32 31 28 26 26 26 24 23 25 26 23 22 21 20 20 21 22 22 23 23 23
9 9 9 10 10 10 11 10 10 11 12 13 14 14 15 15 14 13 13 14 13 13 14 15 16 18 19 19 19 20 21 21 21 21 21 23 25 25 25 24 25 26 27 28 30 31 32 33 34 35 36 35 35 34 33 34 33 33 33 32 32 32 32 32 31 30 30 30 28 24 23 23 23 23 23 22 21 21 21 21 21 22 23 24 25
9 9 9 10 10 11 11 11 10 11 12 13 14 15 15 16 16 15 15 14 13 13 14 15 15 16 18 19 19 20 20 19 19 20 21 24 26 27 28 27 26 26 25 26 28 29 30 31 31 33 34 35 36 35 34 33 33 34 34 33 31 31 31 31 31 30 30 29 27 25 25 25 23 22 22 21 21 21 20 19 20 22 23 25 26
10 9 9 9 10 11 11 11 11 12 13 13 14 15 16 16 17 17 17 16 15 14 14 15 16 16 17 18 19 20 20 18 18 19 21 25 27 28 30 29 27 27 26 26 26 28 30 31 31 31 33 35 36 36 35 35 34 33 33 33 31 31 31 30 29 30 30 27 26 25 25 25 24 22 20 18 17 18 20 20 21 23 24 24 25
11 10 9 10 10 10 11 12 12 13 13 13 13 15 16 16 16 17 18 18 16 15 14 16 17 18 18 18 19 20 19 18 18 19 22 26 28 31 33 32 29 27 27 27 27 28 30 32 34 34 35 37 37 37 37 37 35 33 32 33 32 31 31 30 29 29 29 25 24 23 22 22 24 22 19 19 20 20 21 20 21 23 23 22 24
11 10 10 10 10 11 12 12 13 13 14 13 14 15 16 16 16 17 18 18 17 17 17 18 18 18 17 17 18 19 18 17 18 19 21 25 29 32 35 35 32 29 28 28 28 29 30 32 35 37 38 38 39 40 40 40 39 37 35 34 34 33 31 29 28 28 28 24 23 22 19 19 24 24 22 23 24 24 20 17 18 20 18 17 21
11 10 10 10 11 12 12 12 13 14 13 14 15 16 17 15 15 16 17 18 18 18 19 19 17 16 16 16 17 18 18 18 18 20 22 25 29 33 34 33 32 31 29 28 28 28 30 32 33 36 38 38 39 40 42 43 44 43 40 38 37 37 35 32 29 29 28 25 24 23 20 20 25 27 25 24 24 24 22 20 18 15 12 11 12
11 10 11 11 11 11 11 12 13 13 14 15 16 16 15 14 14 16 16 17 18 18 19 19 17 16 15 15 15 16 18 18 17 20 23 25 29 31 30 29 29 30 29 29 28 27 27 29 30 32 36 38 39 40 42 44 46 47 46 43 42 41 40 38 34 32 31 28 25 24 24 24 26 27 26 25 25 24 21 19 18 16 14 12 11
11 11 11 11 12 12 12 13 13 14 14 15 15 15 13 12 13 15 16 16 18 19 20 19 18 15 14 14 15 16 17 17 17 19 22 26 28 29 28 27 26 26 27 24 24 25 25 27 29 31 33 35 38 40 42 43 44 47 48 48 46 45 44 44 42 38 36 33 28 27 28 29 27 27 29 28 25 22 18 16 17 17 16 15 17
13 13 12 13 13 13 13 13 13 13 14 16 16 14 13 12 13 15 16 16 18 19 19 19 17 15 14 14 15 17 17 17 16 18 22 25 27 26 26 26 24 24 27 24 15 12 16 21 25 28 29 31 34 37 40 40 40 41 44 46 48 47 46 46 46 43 40 37 32 32 32 32 31 31 31 29 26 23 21 19 19 17 17 19 21
15 15 14 14 14 14 15 14 13 13 15 16 16 14 13 13 14 15 16 16 17 17 17 17 17 16 15 15 16 18 18 17 16 18 21 24 25 25 25 25 24 24 27 26 23 20 17 15 17 21 25 28 31 34 36 37 37 38 39 42 45 46 45 46 46 46 45 41 38 36 35 34 35 34 31 28 25 24 22 20 18 17 17 18 17
16 16 16 16 16 16 15 14 13 14 15 16 15 13 13 14 14 14 16 15 14 14 14 16 17 17 17 16 16 18 20 17 16 18 20 21 23 24 24 23 23 26 28 26 26 28 26 22 19 16 17 22 27 32 35 37 38 37 36 39 41 42 43 45 46 46 45 43 40 38 35 34 34 33 31 28 25 22 20 17 15 15 14 12 12
17 16 15 15 15 15 14 13 14 14 14 15 14 13 13 14 13 14 15 15 13 12 13 14 15 17 18 17 16 18 20 18 17 17 18 19 20 21 23 23 24 26 28 27 25 26 28 29 28 24 18 15 17 23 28 33 37 35 32 34 36 36 38 41 43 45 45 44 42 39 35 33 32 31 29 26 23 21 19 17 16 15 14 11 10
18 16 15 14 13 13 13 14 14 14 13 13 13 13 13 13 12 13 15 14 12 12 13 14 15 16 18 18 16 16 18 17 16 16 16 16 17 19 21 22 24 25 26 24 23 23 27 30 33 32 29 23 14 12 16 23 31 33 30 28 29 31 32 34 37 40 43 42 41 39 35 32 30 28 26 25 22 21 21 20 19 17 15 13 12
19 17 15 13 12 11 12 13 13 12 11 12 12 13 12 11 11 13 14 14 13 14 14 14 15 17 18 19 17 14 15 15 14 14 15 15 15 17 19 20 21 22 23 22 21 22 27 30 32 32 32 31 24 15 9 9 19 26 26 26 27 29 32 33 33 37 39 39 38 36 33 30 28 26 25 23 21 20 21 23 22 19 17 16 15
18 16 15 13 12 12 12 12 12 11 11 12 12 12 10 10 11 13 13 14 14 15 14 14 16 17 18 20 19 14 12 12 12 12 14 15 15 15 16 16 17 19 20 21 21 22 26 29 31 32 31 32 31 26 19 10 3 12 16 19 21 23 28 32 34 35 37 37 35 33 31 28 27 25 24 22 20 20 21 23 23 22 18 15 15
16 15 14 13 13 12 11 11 11 11 11 11 12 10 8 9 11 12 12 14 14 14 14 13 15 17 17 18 19 15 11 11 12 12 12 14 16 15 15 14 14 15 17 18 19 21 24 26 29 30 30 30 30 29 27 22 14 8 6 10 13 15 19 26 29 31 34 34 32 31 29 27 26 25 24 22 21 21 22 22 23 22 19 17 18
14 13 13 13 13 13 12 11 11 11 10 10 9 8 8 9 10 10 11 13 14 15 14 13 13 15 16 16 17 16 11 11 12 13 12 12 14 15 14 14 13 13 14 16 17 19 20 22 24 27 28 28 27 27 26 25 22 19 14 6 8 11 14 19 22 24 26 27 27 28 27 26 25 24 22 21 21 22 23 22 21 20 19 19 19
13 12 13 13 13 13 12 10 10 10 9 8 7 8 9 10 9 9 10 12 14 15 14 14 13 14 15 15 15 15 14 12 12 13 13 13 13 14 14 13 13 12 13 14 16 17 18 19 20 23 24 24 23 24 24 23 23 21 19 16 11 8 11 16 21 23 23 22 22 24 23 23 23 22 20 21 24 25 24 21 19 19 18 17 16
11 12 14 14 13 12 11 9 9 9 7 6 7 8 9 9 8 8 10 12 13 14 15 15 15 15 15 15 14 13 14 14 13 12 13 13 13 13 13 13 12 13 13 14 14 15 17 18 17 18 20 20 19 21 23 23 23 21 20 21 19 16 13 11 14 18 21 21 20 19 19 21 23 23 21 20 20 20 19 16 16 16 15 14 14
12 14 15 15 14 13 11 9 8 7 6 5 7 8 8 7 7 8 10 11 12 14 15 15 15 16 16 15 13 12 12 14 14 13 13 13 14 13 12 12 12 12 13 14 15 15 16 16 15 15 16 17 18 20 21 22 22 19 18 20 22 22 22 21 20 16 14 16 18 15 14 16 19 21 19 16 14 14 14 14 13 14 14 14 13
14 15 16 18 16 12 11 9 7 6 6 6 6 7 8 7 7 8 9 9 11 13 14 15 16 17 17 16 15 12 11 12 13 13 13 13 14 14 14 13 12 12 12 13 14 15 15 15 15 14 15 16 16 17 18 19 19 18 16 18 20 22 23 24 26 24 21 20 22 19 16 15 16 17 17 15 15 14 13 13 13 13 15 17 16
15 15 17 19 15 11 12 9 7 7 7 7 6 7 7 6 7 8 8 9 10 12 14 15 17 18 18 18 16 13 11 11 11 12 12 13 15 15 15 14 14 13 13 13 14 14 15 14 14 14 15 15 15 16 15 15 16 17 16 17 18 18 19 20 21 22 22 23 25 23 20 18 18 18 17 14 11 10 10 10 10 11 13 15 15
14 15 17 17 12 12 11 9 7 7 8 8 7 6 5 4 5 6 6 8 10 12 13 15 15 16 15 15 15 14 12 11 11 11 12 13 15 16 16 15 15 15 15 15 15 15 15 14 13 13 14 14 16 17 16 14 14 15 15 15 16 16 15 16 17 18 19 20 22 23 21 20 19 18 17 16 14 11 8 7 9 9 9 10 10
13 14 15 13 10 12 11 9 8 8 9 9 7 6 4 3 4 3 3 6 8 10 12 15 16 16 13 12 13 14 14 13 11 10 10 11 13 15 16 16 16 16 16 16 16 16 17 17 17 16 15 15 17 18 17 15 13 12 13 13 14 14 15 15 15 15 14 15 16 17 17 17 16 17 17 17 15 13 10 8 8 9 9 9 8
13 14 14 12 9 11 11 9 9 9 9 10 8 6 3 3 3 1 2 5 7 9 12 14 16 16 15 13 11 11 12 12 11 8 7 7 9 11 13 14 15 16 15 15 15 17 19 19 19 19 16 15 15 16 16 14 12 11 10 11 11 11 12 13 14 13 12 13 14 13 13 12 12 13 15 15 13 12 11 9 7 8 9 10 10
13 15 15 14 12 11 11 10 9 9 10 10 8 5 2 1 1 1 4 5 7 9 11 13 15 16 16 15 13 12 11 11 10 7 6 5 6 8 9 11 13 14 15 14 15 17 19 19 19 20 18 16 14 14 13 12 11 11 10 10 11 11 11 11 12 12 12 13 13 12 11 11 10 10 9 10 10 11 11 10 8 9 11 13 13
12 15 16 16 14 13 12 11 10 9 8 8 7 5 3 2 2 4 5 5 7 10 12 14 15 15 16 16 16 16 15 14 12 9 7 5 5 6 7 9 11 12 12 13 16 17 18 18 18 19 19 18 16 15 13 11 10 10 11 11 11 11 10 10 10 10 10 11 11 11 10 10 10 9 8 8 9 10 10 10 9 10 12 14 15
10 12 14 15 16 16 14 12 9 8 7 7 5 4 3 3 4 6 7 5 6 10 13 15 15 16 16 17 17 17 17 16 15 13 9 6 5 6 8 11 13 13 13 14 17 17 18 19 20 20 20 19 18 16 16 15 12 10 11 12 11 10 8 7 8 8 8 8 9 10 11 11 11 10 9 8 9 9 9 9 9 9 11 14 15
9 11 12 13 14 15 14 13 10 7 5 4 5 4 3 4 6 7 7 5 5 8 13 15 16 16 17 17 17 17 17 17 16 15 12 9 9 10 11 13 15 17 18 18 18 17 17 19 20 21 21 22 21 20 20 21 18 13 10 9 9 9 8 6 5 6 6 6 6 6 7 9 10 11 10 8 7 7 8 8 7 6 8 12 13
7 9 10 11 11 11 12 11 7 3 5 6 6 6 7 8 9 8 8 8 8 9 12 15 15 16 16 17 17 18 18 19 18 17 16 14 12 12 14 16 17 18 19 20 19 17 17 17 18 19 21 22 23 23 23 24 23 19 14 11 8 8 8 6 4 4 4 4 3 2 2 3 5 6 5 4 4 5 5 7 7 6 8 11 12
7 8 8 7 6 4 3 2 3 5 7 8 9 10 10 11 11 11 11 10 10 10 12 13 13 13 14 15 16 17 18 19 19 19 19 19 18 18 19 19 18 17 17 18 17 16 18 20 21 22 23 24 25 26 25 25 25 24 21 18 14 12 10 8 5 3 1 1 2 3 3 2 2 2 1 1 3 4 5 7 7 7 8 10 11
7 8 6 4 1 4 7 7 8 9 9 11 11 12 12 12 11 11 11 10 10 11 12 13 13 14 15 16 17 16 15 16 18 20 22 23 24 23 21 19 17 16 17 18 19 20 24 27 28 27 27 26 27 27 28 27 27 26 25 25 23 21 18 15 12 9 7 4 2 4 6 6 7 6 4 4 6 6 6 7 8 8 8 9 10
5 7 7 5 6 9 11 12 13 13 13 12 11 12 12 12 11 11 11 10 10 11 12 13 14 15 17 18 17 15 14 16 19 21 24 25 24 23 20 19 18 18 20 22 25 27 29 31 32 31 31 30 29 29 29 29 28 27 27 27 26 24 22 21 19 18 16 14 11 7 4 3 5 7 6 6 8 8 8 8 9 9 11 11 12
3 4 7 8 11 14 15 16 17 16 13 12 12 13 12 11 11 11 10 10 10 10 11 12 13 14 15 17 16 15 15 17 19 20 21 21 21 20 19 19 18 18 20 24 27 29 30 31 32 32 32 32 31 31 31 31 30 29 28 27 27 26 26 25 24 23 21 20 17 14 11 9 7 5 4 5 6 6 7 7 7 8 11 13 14
3 7 10 12 15 15 15 16 17 16 13 12 13 12 11 11 10 10 9 9 9 10 11 11 11 12 14 14 14 13 14 15 16 16 17 18 18 18 18 18 17 17 18 21 24 27 28 29 29 31 31 31 31 31 31 31 31 31 30 30 29 29 29 28 27 26 24 23 21 18 15 14 13 10 5 3 7 8 6 4 5 6 7 9 10
8 10 12 13 14 14 14 14 15 15 14 13 12 12 11 10 9 9 9 9 9 9 11 11 10 12 13 13 13 14 14 14 15 15 16 16 17 17 17 18 18 18 19 21 24 26 27 28 28 29 30 30 30 30 30 30 30 30 31 31 30 30 30 29 28 28 27 25 24 22 20 17 14 12 10 6 5 6 6 5 5 6 7 8 9
12 13 13 13 13 15 15 14 12 13 13 13 13 12 10 9 9 9 8 9 9 9 10 10 10 11 13 14 14 15 15 15 15 15 15 15 16 17 18 19 20 21 22 24 27 28 28 29 29 29 28 29 28 28 28 29 29 29 30 30 30 30 29 29 28 28 27 26 26 25 24 22 18 15 13 11 8 6 5 5 5 5 7 9 9
14 14 14 14 14 15 15 12 10 11 12 11 11 10 9 9 9 9 9 9 9 9 10 10 9 10 12 14 15 16 16 16 15 15 15 15 15 16 17 18 19 20 21 24 26 27 27 29 30 28 27 27 28 27 27 28 28 28 28 28 28 29 28 28 27 27 26 26 26 25 25 25 23 20 18 16 13 11 10 7 6 6 7 8 8
15 15 15 15 15 14 12 10 9 10 10 10 10 9 9 9 9 9 10 10 10 9 10 9 9 10 11 13 14 15 15 15 15 15 15 16 16 16 17 18 20 20 21 21 23 23 23 23 25 26 26 26 26 26 26 26 27 27 27 27 27 27 27 27 26 25 24 24 24 24 24 24 24 24 23 22 19 17 15 13 10 9 7 7 6
17 18 18 18 18 16 14 12 11 11 10 10 10 9 9 9 9 9 9 9 10 10 10 10 10 11 11 12 14 15 15 15 14 14 15 16 17 17 17 18 20 22 22 21 21 21 20 19 19 20 22 24 25 25 25 25 25 25 25 25 25 25 25 24 23 22 22 22 22 22 22 23 22 22 21 22 21 20 19 17 14 12 10 9 8
18 19 19 19 19 19 18 17 16 16 15 14 14 12 11 10 10 9 9 9 10 10 11 12 12 13 14 14 14 15 16 15 14 13 15 16 16 16 16 17 18 20 22 22 21 21 21 20 18 17 18 19 21 23 24 24 24 23 23 23 23 23 22 21 20 20 20 20 20 20 19 19 20 20 19 19 20 21 20 20 18 16 13 12 11
16 17 17 18 19 19 19 18 18 18 18 17 15 13 12 11 10 11 11 11 11 12 12 14 16 17 18 18 18 17 18 17 15 15 14 14 14 13 14 15 16 19 20 20 21 21 21 21 20 18 16 16 18 20 22 23 23 23 23 23 22 22 21 20 19 18 18 17 18 17 16 16 18 18 18 18 19 20 20 21 21 20 17 14 12
14 15 15 16 16 17 18 17 17 17 17 16 14 14 14 13 12 12 11 11 12 13 15 17 18 18 18 18 18 18 18 17 16 15 14 12 11 10 10 10 12 15 16 18 20 21 22 22 22 21 19 17 17 17 19 21 22 22 22 22 22 21 20 19 18 17 16 15 15 15 14 15 15 14 14 15 17 18 18 18 19 19 19 17 14
12 13 14 14 15 16 16 17 17 17 17 17 16 16 17 16 15 14 13 11 11 13 16 18 17 17 17 17 16 16 16 16 15 15 13 12 11 10 9 8 9 11 13 15 17 19 20 21 22 22 21 19 17 15 16 18 19 20 21 21 20 20 19 19 18 17 15 15 14 13 13 13 13 12 11 12 14 14 15 15 16 17 18 18 17
11 12 13 14 15 16 16 17 18 17 17 17 16 16 16 16 16 16 15 14 13 14 15 15 15 15 15 15 14 14 14 14 13 13 12 11 11 10 10 10 10 10 12 13 15 17 18 20 21 22 22 20 18 15 14 15 17 19 19 19 19 19 19 19 18 17 16 15 14 13 12 12 12 12 11 11 12 13 13 14 14 14 15 17 18
11 12 13 14 15 16 17 17 17 16 15 15 15 15 15 15 15 15 15 15 15 15 14 14 13 13 13 13 12 12 12 12 11 11 11 11 11 11 11 11 11 11 12 12 13 15 17 18 19 20 21 20 18 16 14 15 16 17 17 17 17 18 18 18 18 18 17 15 14 13 12 12 11 11 11 12 13 13 13 13 13 13 13 14 14
Wind_Direction
272 278 292 305 316 324 324 321 325 330 330 327 319 309 308 317 328 335 337 338 335 326 318 314 313 314 316 318 320 321 321 322 319 314 307 301 294 287 283 279 274 269 265 260 253 248 244 241 241 241 240 236 235 235 235 237 238 237 236 235 234 234 234 232 236 250 252 249 249 252 249 243 240 240 243 247 251 256 261 259 252 249 249 252 259
270 275 290 304 315 322 320 316 320 328 330 332 328 318 310 313 322 330 334 335 332 326 319 313 311 310 310 311 313 315 318 318 316 313 308 302 295 288 284 280 277 271 265 260 254 248 243 241 240 240 240 237 233 233 233 233 234 235 235 234 234 234 232 231 234 242 251 250 248 249 246 241 242 244 247 250 254 258 259 256 253 251 252 258 265
268 270 287 303 312 318 318 314 315 325 333 338 339 334 324 319 320 322 326 328 326 323 320 316 314 313 313 313 312 313 315 316 314 311 308 303 296 290 285 282 279 273 265 260 255 250 244 240 240 239 238 235 232 231 232 231 230 232 233 233 234 235 232 230 232 237 248 251 248 247 245 243 246 249 251 254 257 259 257 252 251 251 254 262 267
261 262 283 302 309 314 317 311 307 318 330 336 341 341 335 328 322 317 316 315 315 317 317 318 322 324 322 320 316 315 317 319 318 315 311 307 301 295 289 284 281 276 268 261 258 253 246 241 240 239 236 233 231 231 231 232 231 231 234 234 234 234 231 230 231 234 243 250 248 246 246 246 248 250 251 252 253 253 251 247 247 250 256 262 264
257 257 277 298 307 311 314 308 303 310 320 326 331 333 335 333 327 321 316 311 311 314 316 320 326 328 327 324 320 320 322 323 325 324 322 321 317 309 299 291 286 281 272 263 258 255 250 245 241 238 234 231 231 232 231 232 232 232 233 234 232 231 230 229 229 231 237 244 247 247 247 247 248 249 247 245 245 245 244 244 247 251 257 259 261
257 257 274 295 305 308 311 307 304 308 313 318 322 325 329 331 329 325 321 318 317 316 316 320 325 326 327 327 325 324 323 324 327 328 327 329 328 323 316 308 300 292 282 270 261 256 252 248 242 237 233 232 232 232 231 232 232 232 231 231 229 227 228 227 227 229 234 241 244 245 245 244 244 245 242 240 239 239 240 244 247 251 254 257 260
254 259 276 294 301 305 309 306 304 307 311 315 317 320 324 326 326 323 319 318 321 322 321 319 320 323 324 324 323 322 321 321 324 326 325 327 330 328 325 318 309 301 292 279 267 259 253 250 246 239 234 234 234 234 233 233 234 232 230 229 226 224 225 226 225 226 231 237 241 241 242 243 242 243 242 238 237 238 238 240 244 249 252 256 260
251 260 277 289 295 302 306 303 303 305 308 313 318 321 324 324 324 322 318 315 315 321 323 316 313 316 317 316 317 319 319 320 322 324 325 327 329 328 325 317 306 299 293 284 273 262 255 253 252 245 239 237 237 235 235 235 234 233 229 227 224 221 222 223 223 224 227 232 236 237 239 240 239 240 238 231 226 230 233 234 240 250 254 257 261
249 261 275 281 289 298 300 299 301 303 306 312 320 325 327 326 325 322 318 313 309 309 310 309 310 313 311 310 314 318 319 320 324 326 327 330 331 328 324 316 306 296 288 282 275 266 257 253 252 248 243 241 240 238 237 236 234 232 229 226 222 219 219 220 221 221 224 228 232 232 233 235 234 232 228 220 218 227 233 231 237 249 256 262 265
252 263 272 278 288 296 298 299 301 302 306 312 320 325 327 327 326 323 319 314 310 307 303 302 306 309 307 307 313 316 316 319 326 328 329 332 333 330 324 317 309 299 287 279 273 267 260 254 251 248 245 243 242 241 240 239 236 233 230 226 221 217 216 216 217 219 221 224 226 225 226 229 230 228 226 225 226 229 229 225 233 247 255 261 267
257 266 272 279 289 297 302 305 305 306 309 315 321 325 325 325 325 322 319 317 316 314 310 305 302 300 301 306 314 316 315 319 327 330 332 336 337 333 327 320 314 307 294 280 272 267 261 256 252 248 245 243 241 241 241 241 239 236 232 229 224 220 217 215 214 216 220 224 224 221 220 225 228 227 226 227 228 228 227 227 230 237 240 244 260
259 267 275 282 289 299 307 307 307 311 315 321 324 323 321 321 324 322 320 320 321 320 319 315 306 297 297 305 311 315 318 322 328 334 338 343 343 339 334 329 324 319 308 290 275 268 263 258 254 251 247 243 241 241 241 241 241 238 234 231 228 225 222 219 216 215 217 222 223 219 218 223 226 226 223 223 225 226 226 228 228 229 231 231 237
260 267 275 282 289 302 307 304 306 313 320 327 326 320 317 319 323 326 325 324 325 324 324 322 313 300 297 302 305 312 321 328 333 336 342 348 349 348 345 340 335 337 334 313 281 264 259 255 253 251 247 244 242 241 241 241 241 240 236 232 230 228 226 224 223 221 220 220 222 221 219 220 223 225 225 224 223 220 217 221 227 228 227 229 236
260 266 275 283 290 301 307 304 306 313 324 331 326 317 316 319 324 331 331 329 330 329 327 326 319 304 294 296 302 311 323 335 336 334 342 351 353 355 356 351 347 355 360 354 335 300 279 267 258 253 250 248 246 243 242 241 240 238 234 231 230 228 227 225 223 223 223 222 223 225 224 222 224 227 228 226 223 221 221 224 228 228 229 237 246
262 267 274 281 288 297 305 306 308 316 326 329 323 317 317 320 326 333 333 331 331 330 330 331 324 311 297 293 300 311 322 335 338 333 341 351 355 1 5 359 358 10 12 9 14 17 359 325 297 278 268 263 257 252 247 244 242 237 229 225 225 225 224 224 222 221 222 224 225 228 229 228 228 229 228 228 229 233 236 239 242 241 238 242 248
265 269 274 281 286 293 301 305 309 318 324 323 319 317 320 324 330 334 332 329 329 330 332 333 329 320 307 296 298 308 320 332 336 333 340 350 354 4 10 3 4 19 20 12 16 25 21 7 352 325 294 277 269 262 255 249 244 237 224 216 217 219 220 222 223 222 222 224 226 229 231 231 231 231 230 231 236 241 240 239 239 235 228 231 239
265 270 276 282 285 289 296 303 308 315 322 322 318 318 322 328 334 336 332 327 325 327 331 333 333 330 321 309 301 304 316 330 333 329 339 350 354 5 13 9 10 21 23 17 17 23 25 23 21 13 354 322 289 271 261 250 238 227 217 209 208 212 216 219 221 222 222 223 226 229 230 231 231 231 231 233 240 240 228 220 218 213 209 217 231
264 268 274 280 284 287 292 299 306 313 320 322 320 320 325 331 337 340 338 334 328 328 330 330 331 333 331 325 314 303 311 329 335 331 338 349 354 2 12 15 14 18 22 19 18 22 26 28 29 27 22 12 345 297 272 251 231 218 212 206 202 204 210 213 214 216 219 221 223 225 226 226 228 229 231 234 236 230 220 215 213 207 205 215 225
266 269 274 278 280 285 290 295 302 308 311 316 320 321 323 331 340 345 346 344 338 333 331 326 325 330 333 333 328 312 310 328 339 337 342 349 351 356 7 16 16 14 14 14 15 22 28 29 29 29 30 30 26 13 343 267 229 219 212 205 200 202 205 205 204 207 210 213 215 217 218 219 222 226 228 229 226 224 224 223 217 207 204 212 216
276 279 279 278 276 280 286 290 295 298 298 307 317 318 319 333 346 349 349 347 341 334 330 325 323 326 329 332 335 325 309 321 336 340 345 350 350 349 357 9 14 12 9 7 12 21 27 28 27 26 27 33 36 35 33 38 196 209 205 199 197 199 200 198 198 199 203 206 208 210 212 213 215 219 221 222 224 225 226 223 218 212 207 204 206
287 289 286 280 274 276 281 284 288 289 291 303 314 314 316 332 344 348 349 349 347 340 334 326 322 325 329 333 338 336 316 310 325 336 344 351 352 351 351 355 2 6 4 3 9 21 28 29 28 26 25 30 37 40 42 46 60 87 141 186 197 197 192 191 192 194 198 200 201 204 207 209 212 217 220 224 227 223 216 213 214 214 211 207 206
289 292 291 281 271 271 275 277 281 282 286 300 310 309 313 324 333 342 347 348 351 350 345 338 331 332 335 337 342 346 336 316 317 327 336 343 349 353 353 350 350 352 355 358 4 15 25 30 31 29 27 28 34 39 42 45 50 55 63 105 184 203 201 195 192 191 191 192 192 195 199 203 207 212 217 220 219 213 207 206 208 209 211 215 213
287 290 289 281 270 267 268 267 273 278 282 294 301 303 310 318 326 338 346 348 351 351 351 352 346 341 341 341 344 350 349 339 331 332 333 334 336 342 349 352 351 347 345 349 356 3 11 22 31 32 28 28 32 37 41 45 49 50 54 67 96 151 188 196 197 195 192 187 185 188 191 193 196 198 201 204 206 204 202 202 204 206 208 213 215
283 284 287 281 271 264 255 253 268 276 274 282 294 302 312 318 327 340 345 350 352 350 349 351 347 340 338 339 344 350 351 351 351 348 346 346 341 337 340 346 353 356 353 350 352 356 1 10 24 31 28 28 35 40 40 42 45 49 53 58 71 92 111 137 166 180 182 178 175 179 184 185 189 192 195 199 201 200 198 197 202 208 212 212 212
280 282 289 287 276 258 240 243 263 264 255 268 290 302 309 317 331 339 341 347 350 348 347 346 342 338 334 335 342 350 352 352 352 351 353 356 357 352 346 344 348 354 360 1 0 1 4 10 20 28 25 26 35 43 46 44 42 46 54 57 62 73 81 85 93 103 121 133 134 141 156 167 177 183 186 187 186 184 187 192 198 207 214 217 217
281 282 287 291 283 252 228 236 247 237 239 261 286 301 306 315 333 336 335 342 347 347 346 344 341 338 336 335 337 342 350 353 351 350 350 354 359 1 358 354 351 348 350 355 359 4 9 13 19 22 20 19 26 35 46 52 47 44 51 56 56 61 68 74 78 74 72 83 94 100 110 124 138 149 155 163 172 175 179 185 192 200 206 208 208
286 289 291 293 282 239 220 229 226 222 242 258 275 298 306 319 335 333 330 338 344 346 348 348 346 341 337 335 335 336 346 354 351 349 351 351 355 359 0 0 359 355 352 350 353 359 3 6 15 22 21 20 23 27 38 53 56 53 55 58 59 60 62 66 72 72 68 72 78 83 90 99 108 119 127 132 144 156 169 183 193 200 202 199 193
292 300 301 296 272 228 219 225 217 222 246 252 266 298 310 321 334 332 334 344 351 355 358 0 0 355 346 339 336 334 340 349 351 351 350 349 351 354 357 360 0 1 360 355 354 358 0 4 17 27 26 24 26 30 35 46 57 62 63 64 64 65 65 66 69 70 71 73 74 75 79 82 85 95 103 98 92 98 121 162 182 183 182 179 172
296 305 308 299 261 223 222 230 225 232 247 251 267 299 307 314 327 330 354 11 16 20 19 17 16 15 10 357 343 335 336 341 345 347 346 348 351 352 354 358 1 3 2 0 360 1 2 6 14 20 23 25 25 28 33 40 49 59 64 67 67 68 69 72 72 71 75 81 77 71 72 74 71 74 82 81 76 77 86 108 142 152 152 150 143
297 303 308 303 266 233 234 240 238 244 254 258 272 295 296 304 320 332 73 54 39 34 31 26 21 20 22 18 6 353 342 338 336 337 343 353 355 354 357 2 5 6 6 8 12 13 10 10 10 9 11 19 22 24 28 33 41 51 60 68 71 70 70 74 78 79 83 89 87 78 75 75 66 62 69 73 72 72 74 83 107 122 128 131 120
299 303 307 305 285 258 250 252 253 257 258 259 271 287 276 257 320 99 110 83 53 38 35 32 25 21 20 20 20 17 6 354 343 337 344 359 1 360 4 10 14 16 15 17 23 23 18 15 13 10 11 14 18 23 30 36 41 46 54 65 72 74 72 72 78 86 91 93 94 90 84 82 77 70 70 72 72 71 71 79 102 119 123 124 119
302 303 304 305 300 287 271 263 263 263 259 257 265 272 246 198 121 108 112 91 60 47 43 39 36 32 28 24 24 24 22 16 8 356 349 353 5 13 20 26 27 23 19 24 30 29 24 20 16 14 14 13 13 19 29 40 49 53 56 57 59 67 74 73 73 82 92 96 100 101 100 99 98 94 89 85 80 77 75 80 100 119 123 121 119
308 307 307 309 311 307 295 279 269 267 265 255 242 230 218 182 136 123 123 112 76 57 50 47 47 46 42 37 35 34 32 30 26 19 12 15 39 53 55 53 48 40 36 38 37 31 28 27 24 21 21 21 20 22 27 33 42 54 63 61 54 54 64 71 69 71 78 88 99 108 113 116 117 113 108 100 93 91 89 86 90 109 122 123 120
300 304 310 312 312 311 307 298 287 273 254 223 198 183 157 140 132 124 116 104 65 42 41 46 50 51 47 44 42 39 37 37 35 34 38 51 65 73 73 68 61 54 51 48 41 31 26 25 23 23 26 28 30 31 33 36 39 41 48 57 58 53 55 65 77 78 73 72 80 97 110 117 120 121 119 111 102 101 106 105 102 113 130 132 132
305 305 309 309 306 305 306 303 291 230 166 157 157 149 134 122 113 100 87 72 46 25 24 33 43 48 47 46 43 39 38 37 35 38 46 52 55 59 59 53 47 43 41 39 35 31 27 22 22 25 29 33 37 39 41 45 48 47 44 42 42 40 41 49 76 103 105 96 83 79 98 114 124 129 128 127 128 128 134 139 142 151 159 154 148
326 323 315 308 308 329 6 37 109 129 137 144 142 135 122 109 98 89 81 71 55 34 19 20 30 40 43 43 41 37 37 38 38 40 45 48 50 51 48 42 36 33 31 30 30 33 36 38 39 40 39 41 44 46 48 52 56 58 57 56 56 53 48 47 51 60 101 178 230 251 252 241 224 212 205 203 188 177 173 174 174 178 182 177 168
310 299 285 263 181 113 110 116 121 123 129 136 133 121 107 97 90 87 82 72 60 46 28 18 19 21 23 25 27 27 31 37 41 41 42 44 47 48 46 43 40 39 38 39 42 47 50 51 51 49 47 47 49 51 53 55 58 61 61 60 61 62 60 59 59 57 53 45 358 292 280 275 266 254 234 204 192 187 184 186 189 195 199 197 192
298 268 241 204 147 132 131 130 126 125 127 126 116 102 96 92 87 84 82 76 66 54 38 27 22 16 10 9 12 16 23 33 37 37 35 37 41 43 45 47 48 48 51 54 56 58 58 56 55 53 52 51 51 53 53 53 55 57 57 56 57 57 56 56 57 56 53 50 46 41 23 331 291 269 245 210 194 193 197 201 204 206 208 209 209
269 208 184 157 134 130 131 126 122 122 122 114 102 94 92 90 84 80 80 77 72 63 49 37 29 20 11 9 12 18 27 35 37 36 35 37 41 43 48 51 51 50 53 58 60 60 59 58 57 56 55 53 52 52 52 52 52 52 53 52 51 49 47 47 46 45 42 39 38 39 41 35 20 351 297 264 255 244 226 218 222 224 220 217 215
140 130 133 133 130 130 128 122 117 114 108 101 97 93 89 86 83 80 78 77 76 70 60 48 36 27 25 26 30 35 40 42 43 43 43 44 45 48 51 53 51 48 50 54 58 60 59 57 57 57 56 55 53 51 51 51 51 51 51 50 49 47 45 43 41 39 38 35 32 32 31 30 31 35 31 324 305 307 295 265 258 258 248 237 231
127 118 119 121 122 118 110 105 107 107 101 95 92 89 86 84 83 82 82 83 81 75 68 59 46 39 42 48 54 56 53 50 49 50 51 50 50 53 55 55 54 53 54 56 58 58 57 56 56 57 57 56 54 53 52 51 50 50 49 48 47 47 45 43 41 39 36 34 32 30 27 25 27 32 32 17 351 340 329 312 302 292 279 268 262
131 123 115 108 103 98 92 87 90 95 93 89 86 84 84 85 85 85 87 87 86 82 76 67 54 48 52 59 64 63 58 53 51 50 52 55 58 59 60 61 61 61 61 61 61 60 58 56 55 54 53 52 51 50 51 50 50 50 49 46 45 44 43 42 41 39 38 35 33 30 27 24 24 27 26 21 20 20 1 335 323 308 293 291 295
131 121 113 108 105 103 100 96 90 87 86 88 89 89 87 85 84 84 85 85 84 84 82 73 61 53 51 55 60 62 58 54 51 49 51 59 66 64 61 61 61 61 62 62 62 60 58 56 54 52 51 50 48 47 47 47 47 48 48 46 44 42 41 39 38 37 36 36 34 31 29 25 24 24 23 19 16 18 15 6 354 334 315 313 318
130 118 112 110 107 104 104 103 99 94 93 94 94 91 88 85 83 82 82 81 79 78 78 74 67 58 50 47 52 57 56 54 53 53 55 62 67 66 63 62 62 61 60 58 57 55 53 52 51 50 49 48 48 47 45 44 43 44 44 43 41 39 38 37 35 33 33 34 35 34 32 29 27 26 24 20 17 15 14 11 5 359 351 340 324
120 113 107 104 100 98 97 98 97 98 99 98 94 92 90 88 87 84 82 79 77 75 74 72 69 67 61 56 55 58 59 58 57 59 62 66 68 68 66 64 62 59 57 54 52 50 48 46 44 43 43 43 43 43 43 42 41 39 39 38 36 35 34 33 32 31 30 31 33 33 30 29 30 29 27 25 23 19 15 13 10 9 12 11 356
110 107 106 104 101 100 99 99 98 99 100 99 99 98 96 94 93 92 88 86 84 82 80 79 78 75 74 71 68 66 65 64 64 66 68 69 69 68 68 65 61 56 54 52 49 48 47 44 42 40 38 38 38 39 39 39 38 38 37 35 33 31 29 27 27 28 28 28 30 31 27 25 27 27 27 30 31 28 24 21 17 14 15 17 16
105 104 105 106 104 103 102 101 100 101 101 100 99 99 98 96 97 98 97 96 94 90 88 89 89 87 84 83 81 78 75 74 74 76 77 76 72 69 68 66 59 54 52 52 50 48 47 45 43 41 38 35 34 35 34 34 34 34 34 34 32 28 25 23 22 23 23 24 27 28 25 22 22 22 22 25 30 30 28 26 24 18 14 13 17
105 105 107 108 108 109 108 107 105 104 104 102 101 102 103 103 104 103 103 102 99 98 99 99 98 95 93 89 87 84 82 80 79 79 78 77 74 71 69 65 58 52 51 52 52 50 49 47 44 42 39 35 33 32 32 31 30 30 30 31 29 26 22 21 21 21 21 21 24 27 26 23 20 16 14 18 24 26 25 25 25 22 17 14 16
107 110 113 115 116 118 119 118 116 115 114 112 111 111 112 113 113 113 113 111 109 110 111 110 107 103 100 97 93 89 86 82 78 76 72 70 70 70 70 70 64 57 54 54 52 49 47 45 42 40 38 35 32 30 28 27 28 27 27 26 24 21 19 20 20 20 20 20 21 24 25 24 23 20 13 11 16 21 22 22 21 20 18 17 18
114 117 121 124 126 127 127 126 124 123 122 120 119 119 118 119 120 122 122 124 124 123 122 120 116 112 109 104 99 93 88 83 78 75 70 67 67 68 68 68 65 60 58 57 54 48 44 40 37 35 33 32 30 28 25 24 24 24 24 23 20 17 17 17 17 17 18 19 21 23 22 22 25 27 21 13 13 17 21 21 19 17 16 15 16
128 129 130 132 132 133 133 133 132 131 130 127 125 125 125 125 127 128 130 131 133 133 131 127 123 119 115 109 103 97 91 86 81 77 72 69 67 65 62 60 59 57 56 55 50 44 39 35 31 28 26 25 25 25 25 24 23 23 22 21 19 18 16 15 15 15 15 16 18 21 21 20 20 23 22 19 15 15 17 20 20 19 17 16 14
Height
809 809 807 806 806 805 804 804 803 803 802 800 799 798 797 796 794 793 792 790 790 789 788 787 786 785 784 783 781 780 778 777 775 774 773 772 770 769 767 766 765 764 764 764 764 765 765 765 765 766 767 768 769 770 772 774 775 776 777 778 778 779 780 781 781 777 777 780 781 781 783 784 784 783 784 784 786 787 787 788 788 789 789 790 791
808 807 806 805 805 804 803 803 802 801 800 799 798 796 796 795 793 792 790 789 789 787 787 786 784 784 782 781 780 779 777 776 774 772 771 769 767 766 764 763 761 760 759 759 759 760 760 760 760 761 763 764 764 765 767 768 770 771 772 773 774 774 776 777 777 776 774 775 778 778 779 780 780 780 780 781 782 784 785 785 786 786 787 788 788
807 806 806 805 804 803 802 802 801 800 799 798 796 795 794 794 792 791 790 788 787 786 785 784 783 782 781 780 778 777 776 774 772 771 769 767 765 763 761 759 758 756 755 754 754 755 755 755 755 756 758 759 759 760 761 763 765 766 767 768 769 769 771 772 773 773 772 772 774 775 776 777 776 776 777 778 779 780 781 782 783 784 784 785 785
805 805 805 804 803 802 801 800 800 798 798 796 795 794 793 792 791 790 789 787 786 785 784 783 782 780 779 778 777 775 774 772 770 768 766 764 762 760 757 755 753 752 750 749 749 749 749 750 750 751 752 753 754 755 756 758 759 760 761 763 764 765 766 768 768 770 770 769 770 771 772 773 773 774 775 776 776 777 778 779 780 781 781 782 782
804 804 804 803 802 801 800 799 798 797 796 795 794 793 792 791 790 789 787 786 784 784 782 781 780 779 778 777 775 773 772 770 768 765 764 762 760 757 755 752 750 748 746 745 745 745 745 745 745 746 747 748 749 750 751 752 754 755 756 757 759 760 761 763 764 766 767 766 766 768 770 771 771 771 772 773 773 774 775 775 776 777 778 779 779
803 802 802 801 800 800 798 797 796 795 795 793 792 792 791 790 789 787 786 785 783 782 781 780 779 777 776 775 773 772 770 768 766 763 762 760 757 755 752 749 747 744 742 741 740 740 740 740 741 742 742 742 743 744 745 746 748 750 751 752 754 755 757 758 760 762 763 763 763 765 767 768 768 768 768 769 770 771 771 772 773 774 775 775 775
801 800 800 799 799 798 797 796 795 794 793 792 791 790 789 789 787 786 785 784 782 781 779 778 777 776 775 773 772 770 768 765 764 762 760 758 755 752 749 746 744 741 739 737 736 736 735 735 736 736 737 736 737 739 740 741 743 744 745 747 749 751 752 754 756 757 759 759 760 761 763 764 766 765 766 767 767 768 768 769 770 770 771 772 772
799 799 798 798 797 796 796 795 794 793 792 790 790 789 788 787 786 785 784 782 781 779 778 777 775 774 772 771 769 768 766 764 762 760 758 756 753 750 746 743 741 738 736 734 732 732 731 731 731 731 731 731 732 733 734 736 737 739 740 742 744 746 748 749 751 752 754 755 755 757 759 761 762 763 763 764 764 764 765 766 766 767 768 769 769
798 797 796 796 796 795 794 794 792 792 790 789 788 787 786 786 784 783 782 781 779 778 776 775 773 772 770 769 767 765 763 762 760 759 756 753 750 747 743 740 736 733 731 729 728 727 726 726 726 726 726 726 726 727 728 730 732 733 735 737 739 741 743 745 746 748 749 750 751 753 755 756 757 759 759 759 759 760 761 763 763 763 765 766 766
796 795 795 794 794 794 793 792 791 790 789 788 787 786 785 784 783 782 780 779 777 776 774 773 771 770 768 766 765 763 761 760 758 757 755 752 749 745 740 736 732 729 727 725 723 722 721 721 720 720 720 721 721 722 722 724 725 727 729 731 733 735 738 740 741 743 745 746 746 748 751 751 752 754 754 754 755 757 758 759 760 761 763 763 763
793 793 793 793 792 792 791 790 790 789 787 787 785 784 783 782 780 780 778 777 776 774 772 770 769 768 766 764 763 761 760 759 757 755 753 750 747 743 738 733 728 724 722 720 718 717 716 716 715 715 715 716 716 716 717 718 719 721 724 726 727 729 731 734 736 738 740 741 741 743 745 746 747 749 750 751 752 754 754 756 757 758 760 761 760
791 791 791 791 790 790 789 789 788 787 786 785 784 782 781 779 778 778 776 775 774 772 770 768 766 765 764 762 761 759 758 757 755 753 751 748 745 741 736 731 726 722 718 715 713 712 711 711 710 710 710 710 711 711 711 712 713 715 718 720 722 723 725 727 730 732 735 736 737 739 740 741 743 745 746 747 749 750 751 753 754 755 756 757 757
789 789 788 789 788 788 788 787 786 786 784 783 782 780 779 778 776 776 774 773 772 770 769 766 764 763 762 760 759 758 756 755 753 752 749 746 743 739 734 730 725 721 716 711 708 707 706 706 705 705 705 705 706 706 706 706 707 708 711 714 716 717 719 721 723 726 729 731 733 734 734 737 739 740 741 743 745 747 748 750 750 751 753 753 753
786 786 786 787 786 786 786 785 785 784 783 781 780 778 777 776 775 774 773 772 770 769 767 765 763 761 760 759 757 756 754 753 751 750 747 744 741 737 733 729 724 719 714 709 706 704 703 702 700 699 699 699 700 700 699 700 701 702 704 707 709 711 713 715 718 721 724 726 728 729 730 732 734 735 738 740 741 743 744 745 747 748 749 750 750
784 785 784 785 785 785 784 784 783 782 781 780 778 777 775 774 773 772 771 770 769 767 765 764 762 760 759 757 756 754 753 752 750 748 746 743 739 736 732 729 724 718 713 710 706 703 701 700 697 696 695 694 693 693 693 694 695 696 697 698 701 703 706 708 712 715 718 721 723 724 726 729 730 732 735 737 738 739 741 742 744 745 747 748 749
783 783 783 783 783 783 783 782 782 781 779 778 777 775 774 773 772 771 770 769 767 766 764 763 761 759 758 756 755 753 751 750 749 747 745 742 739 735 732 729 725 718 714 711 707 704 702 699 696 693 690 688 687 686 686 687 688 688 689 690 693 697 699 702 706 710 713 716 719 721 723 726 728 730 732 734 735 737 739 740 742 743 745 746 747
781 781 781 781 781 781 781 781 780 779 778 777 775 774 773 771 770 769 768 767 766 765 763 762 760 759 757 755 754 752 750 749 748 746 744 742 738 735 731 728 725 719 715 713 709 706 704 700 695 691 687 684 682 680 679 679 680 681 682 684 687 691 694 697 702 705 709 712 715 718 721 723 725 728 729 731 732 734 736 738 739 740 742 743 744
779 779 779 779 780 780 780 779 779 778 777 776 774 773 772 770 769 768 767 766 765 764 762 761 760 758 756 754 752 751 749 748 747 745 743 741 738 734 731 728 725 721 717 715 712 708 705 701 696 692 687 683 679 676 674 674 674 675 677 680 683 687 690 694 698 701 705 709 712 715 718 720 722 724 726 727 728 730 732 733 735 737 739 740 741
777 777 778 778 778 778 778 778 777 776 776 775 773 772 771 769 768 767 766 765 764 763 761 760 758 757 755 753 751 749 748 747 746 744 742 740 737 734 731 728 725 722 719 716 713 709 705 702 697 693 689 684 679 676 673 671 671 673 674 677 680 682 685 689 693 696 700 704 707 711 714 716 718 721 722 724 725 727 728 730 732 734 735 737 738
775 776 776 776 777 777 777 776 776 775 774 773 772 771 770 768 767 766 765 764 763 761 760 759 757 755 754 752 750 748 747 746 745 743 741 739 736 734 731 729 726 724 721 717 714 709 706 702 698 695 691 687 683 679 676 673 672 673 673 675 677 679 681 684 688 691 695 699 703 707 710 712 715 717 719 720 722 724 726 727 728 730 732 734 735
774 774 774 774 775 775 775 775 774 774 773 772 771 770 769 768 766 765 764 763 762 760 759 757 756 754 753 751 749 747 746 745 744 742 740 738 736 733 731 729 727 725 722 720 716 712 708 704 701 697 694 690 687 684 681 678 676 675 675 676 677 678 680 682 685 688 691 695 698 702 706 708 711 713 715 717 719 721 723 724 725 727 728 730 731
772 772 772 772 773 773 773 773 773 772 772 771 770 769 768 767 766 764 764 763 761 759 758 756 755 753 751 750 748 746 745 744 742 741 740 738 736 733 731 729 728 726 724 721 718 714 711 708 704 701 698 695 692 689 686 684 682 680 679 678 678 679 681 681 683 686 689 692 695 699 702 704 707 710 712 713 716 718 720 722 723 724 726 727 728
771 771 770 770 770 770 771 771 771 770 770 770 769 769 768 766 765 764 763 762 760 759 757 755 754 752 750 749 747 745 744 742 741 740 739 737 735 733 731 730 728 726 724 722 720 717 714 711 708 705 702 700 697 694 691 689 687 685 684 682 680 680 680 681 682 685 688 691 694 696 699 701 704 707 709 711 713 715 717 719 721 722 724 725 727
770 769 768 768 768 768 768 769 769 769 769 769 769 768 767 766 764 763 762 761 759 758 756 754 753 751 750 748 746 745 743 742 741 739 738 736 735 733 731 730 728 726 724 723 721 719 716 713 711 709 706 703 701 698 695 693 691 689 688 686 684 682 681 681 682 684 686 689 692 695 697 700 702 705 707 709 711 713 716 718 719 721 722 724 725
767 767 766 766 765 766 766 766 766 767 767 768 768 767 766 765 764 762 761 760 759 757 755 754 752 751 749 748 746 744 743 741 740 739 737 736 734 732 731 730 728 727 725 723 721 720 718 715 713 711 708 706 703 701 698 696 695 693 691 690 689 686 685 684 684 685 686 688 691 694 697 699 701 702 705 709 711 712 714 716 718 720 721 722 724
765 765 764 763 763 763 764 764 764 765 766 766 766 766 766 764 763 762 761 760 758 757 755 754 752 750 749 747 745 744 743 741 740 739 737 736 734 733 731 729 728 727 725 723 721 720 718 717 714 712 709 707 705 703 701 700 699 697 696 695 694 692 691 690 689 689 690 689 691 695 698 699 700 702 705 709 711 712 713 715 717 719 720 721 722
764 763 762 761 761 761 762 762 762 763 764 765 766 765 765 764 762 761 760 759 758 757 755 754 752 750 749 747 745 743 742 741 740 738 737 736 734 733 731 730 728 727 725 723 721 719 718 717 715 713 711 709 708 706 705 704 703 702 701 700 698 697 696 695 694 694 694 693 693 696 699 700 701 703 706 709 711 712 713 715 717 718 719 720 721
762 761 760 759 759 759 760 760 761 762 763 764 764 764 763 762 761 760 760 759 758 757 756 754 752 751 749 746 744 743 741 741 739 738 737 736 734 733 732 730 728 727 725 723 721 720 718 717 715 714 713 711 709 708 707 707 706 705 704 703 702 701 700 700 699 698 698 698 698 699 701 703 705 706 707 709 711 712 714 715 717 718 719 721 722
759 759 758 757 757 758 759 759 759 760 762 762 763 763 762 761 760 759 759 759 758 757 756 754 753 751 749 747 745 743 741 740 739 738 737 736 734 733 732 730 729 727 726 724 723 721 719 718 716 714 713 712 710 709 708 708 707 707 707 706 705 704 704 703 702 702 702 702 703 703 705 707 709 709 709 710 713 714 715 716 718 719 720 722 723
757 757 757 756 757 757 758 758 758 759 760 760 761 761 761 760 759 759 759 759 759 758 756 755 753 752 750 748 746 744 742 741 739 738 737 735 734 733 732 731 729 728 727 725 724 722 720 719 717 716 714 713 711 710 709 709 708 708 708 708 708 707 707 706 705 704 705 705 706 707 709 710 711 712 713 714 716 717 717 718 719 719 720 722 723
756 756 756 756 756 756 757 757 757 757 758 759 759 760 760 760 759 758 758 759 758 758 757 755 754 752 750 748 747 745 743 741 739 738 736 735 734 733 732 731 730 728 727 726 724 723 721 720 719 717 715 714 713 712 711 710 709 709 709 709 709 709 709 708 708 707 707 707 707 709 711 712 713 714 715 717 718 718 718 720 720 721 722 723 724
755 755 755 755 755 755 755 755 755 755 756 757 758 758 758 758 758 758 758 758 758 758 757 756 754 752 751 749 747 745 743 741 740 738 737 735 735 734 732 731 730 729 728 726 724 723 722 721 720 719 717 716 715 714 713 712 711 710 709 709 710 710 709 709 709 709 709 709 710 711 712 713 715 716 717 719 719 719 720 721 722 722 724 725 726
753 753 754 754 754 754 754 753 753 753 754 755 756 756 757 757 757 757 758 758 758 758 757 756 755 753 752 750 748 746 744 742 740 738 737 736 735 734 733 732 731 729 728 726 725 725 724 723 722 720 719 717 716 714 714 713 712 711 710 710 710 710 710 710 711 711 711 712 712 713 714 715 716 718 719 720 721 721 722 722 723 724 725 726 728
752 752 752 753 753 753 752 752 752 752 752 753 755 756 756 756 755 756 757 757 758 758 757 756 755 754 752 751 749 748 746 743 741 739 737 736 735 734 733 732 731 730 729 728 727 727 725 724 723 722 720 718 716 715 714 713 713 712 712 712 712 711 711 712 712 713 714 714 715 716 716 717 718 719 720 721 722 722 723 724 725 726 727 728 730
751 750 750 750 751 751 751 751 751 751 752 753 755 756 756 755 755 756 756 757 758 758 757 757 756 755 754 752 751 749 747 745 743 741 738 737 736 734 732 732 732 731 731 731 731 730 728 727 725 724 722 720 719 717 716 715 714 713 713 714 714 714 714 714 715 715 716 717 718 718 718 719 719 720 721 722 723 723 724 725 726 728 729 730 730
749 749 748 749 749 749 749 750 751 752 753 754 755 755 755 755 755 757 757 758 759 759 759 758 757 756 754 753 751 750 749 747 745 743 741 739 737 735 734 735 735 735 735 734 734 733 731 730 728 726 724 722 721 720 719 718 717 716 716 715 715 715 716 716 717 717 718 719 720 720 720 720 721 721 722 722 723 724 724 726 727 728 729 730 731
747 748 747 747 747 746 747 749 750 751 753 755 755 755 755 756 757 758 758 759 760 760 760 759 757 756 754 753 752 751 750 749 747 745 743 741 739 738 738 739 739 739 738 738 737 736 734 733 731 729 727 726 724 723 721 720 720 719 719 718 717 717 718 718 718 719 719 720 721 722 722 722 722 722 722 722 723 724 725 726 727 729 730 731 732
746 746 747 746 745 745 746 748 748 750 754 756 756 755 756 757 758 759 760 760 761 762 762 760 759 758 756 755 754 753 751 749 747 745 745 744 743 742 743 743 742 742 742 741 740 739 737 736 735 733 732 730 728 726 724 723 723 722 721 721 721 721 721 720 720 720 720 721 721 722 722 723 723 722 722 722 723 723 725 726 727 728 729 730 731
745 746 746 745 745 745 746 747 748 751 754 756 756 756 757 758 760 760 761 762 762 763 763 762 761 760 759 758 756 755 753 751 750 749 749 749 748 748 747 747 746 746 745 744 743 742 741 740 738 737 736 734 733 731 729 727 726 725 724 724 723 723 722 722 722 722 722 722 722 722 722 722 722 722 723 724 724 724 724 725 727 727 728 729 729
746 747 746 746 746 747 747 747 749 751 754 755 756 757 758 760 760 761 762 763 764 764 764 764 763 763 762 760 759 757 756 755 754 754 754 753 753 752 751 750 750 749 749 748 747 745 744 743 741 740 739 738 737 736 734 733 731 730 728 727 727 726 726 726 725 725 725 724 724 723 723 722 722 722 723 724 725 725 725 725 726 726 727 728 728
746 747 747 747 748 748 749 750 752 752 754 756 756 757 759 760 761 762 763 764 764 765 765 765 765 764 763 762 761 760 759 758 757 757 756 756 756 755 755 754 753 753 752 751 750 749 748 746 744 743 742 740 740 739 738 737 736 734 733 732 732 731 730 730 729 729 728 727 726 726 725 724 723 723 723 723 724 725 725 725 725 726 726 727 727
747 747 748 749 750 751 752 755 756 755 756 757 758 759 761 761 762 763 764 764 765 766 766 766 766 766 765 764 762 761 761 760 760 759 759 759 759 758 758 757 757 756 755 755 753 752 751 749 748 747 745 744 743 742 741 740 739 738 737 737 736 735 734 733 733 732 731 731 730 729 728 727 726 725 725 724 724 724 725 725 725 725 726 726 727
747 748 749 751 752 752 754 756 758 758 757 758 760 761 762 762 763 764 764 765 766 766 766 767 767 767 767 766 764 763 762 762 762 762 762 762 762 761 761 760 759 759 758 757 756 755 754 753 752 750 749 748 747 745 744 743 742 741 741 740 739 739 738 737 736 735 734 733 733 732 731 730 729 728 727 726 725 725 725 725 725 725 725 726 726
748 749 751 751 752 754 755 757 758 759 759 760 761 762 763 764 764 765 765 766 766 767 767 768 768 768 768 767 766 765 765 765 764 764 764 764 764 764 763 763 762 761 760 759 759 758 757 756 755 754 753 752 751 749 748 747 746 745 744 743 742 741 740 739 739 738 737 736 736 735 734 733 732 730 729 728 727 726 726 725 725 725 725 725 726
749 750 751 752 753 754 756 757 758 759 759 760 762 763 764 765 765 766 767 767 767 768 768 769 769 769 769 769 769 768 768 767 767 767 767 767 767 766 766 765 764 763 762 762 761 760 759 758 758 757 756 754 753 752 751 750 749 749 748 747 745 744 743 742 742 741 740 739 737 736 736 735 734 733 733 731 730 730 729 728 727 727 726 726 726
751 751 752 754 755 755 757 757 758 759 760 761 762 764 765 766 766 767 768 768 768 769 770 770 770 770 770 771 771 770 770 770 770 769 769 769 769 768 768 767 766 766 765 764 763 762 761 760 760 759 758 757 756 755 754 753 752 751 751 750 749 748 747 746 744 743 742 741 739 738 738 737 737 736 735 734 732 732 732 731 730 729 728 728 727
754 753 754 755 756 757 758 759 759 760 762 763 764 765 766 767 768 769 769 769 770 771 771 771 772 772 772 772 772 772 772 772 772 771 771 771 770 770 770 769 768 768 767 766 765 764 763 763 762 761 761 760 758 758 757 755 755 754 753 752 751 750 749 748 746 745 744 743 741 740 740 739 738 737 736 735 734 733 733 732 731 731 730 730 729
755 755 756 757 757 758 759 760 761 762 764 765 766 767 768 768 769 770 770 771 772 772 772 773 773 773 774 774 774 774 774 774 773 773 773 772 772 772 771 770 770 770 769 768 767 766 766 765 764 763 763 762 761 760 759 758 757 756 755 754 753 752 751 750 748 747 746 745 743 742 741 740 740 739 738 737 735 734 733 733 733 733 732 731 730
757 757 758 758 759 760 761 762 763 764 765 766 767 768 769 769 770 771 771 772 773 773 774 774 774 775 775 776 776 776 776 775 775 775 775 774 773 773 772 772 772 771 770 770 769 768 768 767 766 765 764 763 762 761 760 759 759 757 756 755 754 753 752 751 750 748 747 746 744 743 742 742 741 741 740 739 737 736 735 734 734 734 734 733 732
758 759 759 760 761 762 763 764 765 766 767 768 768 769 770 770 771 772 772 773 773 774 775 775 775 776 776 776 777 777 777 776 776 776 775 775 775 774 774 773 773 772 772 771 771 770 769 768 767 767 766 765 764 763 762 761 760 759 758 757 756 754 753 752 751 749 748 747 745 744 743 742 742 741 741 740 739 738 736 735 734 734 734 734 733
760 760 761 761 762 763 765 766 766 767 768 769 769 770 771 771 772 773 773 774 774 775 775 775 776 776 777 777 778 778 777 777 777 777 776 776 776 775 775 774 774 773 773 772 772 771 770 769 768 768 767 766 765 764 763 762 761 760 760 759 757 756 754 753 751 750 749 747 746 745 744 743 742 742 741 741 741 739 738 737 735 734 734 734 733